BEIDOU-3 M3 (C27)

Last updated on Dec. 12, 2019, 4:25 a.m. UTC

1 43107U 18003A   19344.67662584 -.00000065  00000-0  00000-0 0  9994
2 43107  55.3143  24.0903 0002925  16.9202  92.5354  1.86232645 13025
UTC
Height (km)
Latitude
Longitude
Inclination
Orbital Period
UTC large
Height (km)
Speed (km/s)
/
Latitude / Longitude
Inclination (degrees)
Orbital Period (minutes)
Azimuth
Elevation
Range (km)
Doppler Factor
iOS Compass Heading
iOS Angle

Next 30 passes for location: Hong Kong

Rise time Rise Azimuth (degrees) Set time Set Azimuth (degrees) Duration Max altitude (degrees)

No matching passes for this satellites